• In Hungary
  • List of Countries
  • For 7 days
  • Water Temperature
  • Satellite Maps
  • Weather Map
  • News
  • Weather Widgets
  • user-avatar
    Login

    Hourly Weather Lemgo

    Today, 15 August, Wednesday

    Time Temperature Precipitation Wind Pressure Humidity
    00:00 +16°C° 0 mm 2 mps 753 mmHg 88%
    01:00 +16°C° 0 mm 1 mps 754 mmHg 90%
    02:00 +16°C° 0 mm 1 mps 754 mmHg 91%
    03:00 +15°C° 0 mm 2 mps 754 mmHg 92%
    04:00 +15°C° 0 mm 2 mps 754 mmHg 92%
    05:00 +16°C° 0 mm 2 mps 754 mmHg 89%
    06:00 +17°C° 0 mm 2 mps 754 mmHg 86%
    07:00 +18°C° 0 mm 2 mps 754 mmHg 82%
    08:00 +19°C° 0 mm 3 mps 754 mmHg 74%
    09:00 +21°C° 0 mm 3 mps 754 mmHg 66%
    10:00 +22°C° 0 mm 3 mps 754 mmHg 59%
    11:00 +24°C° 0 mm 3 mps 754 mmHg 56%
    12:00 +25°C° 0 mm 3 mps 754 mmHg 54%
    13:00 +25°C° 0 mm 2 mps 755 mmHg 54%
    14:00 +25°C° 0 mm 2 mps 755 mmHg 54%
    15:00 +25°C° 0 mm 2 mps 754 mmHg 53%
    16:00 +26°C° 0 mm 2 mps 754 mmHg 53%
    17:00 +25°C° 0 mm 2 mps 754 mmHg 57%
    18:00 +24°C° 0 mm 2 mps 754 mmHg 61%
    19:00 +23°C° 0 mm 2 mps 754 mmHg 65%
    20:00 +21°C° 0 mm 2 mps 754 mmHg 70%
    21:00 +20°C° 0 mm 2 mps 755 mmHg 74%
    22:00 +19°C° 0 mm 2 mps 755 mmHg 79%
    23:00 +18°C° 0 mm 2 mps 755 mmHg 81%

    Tomorrow, 16 August, Thursday

    Time Temperature Precipitation Wind Pressure Humidity
    00:00 +18°C° 0 mm 2 mps 755 mmHg 83%
    01:00 +17°C° 0 mm 2 mps 755 mmHg 85%
    02:00 +17°C° 0 mm 2 mps 754 mmHg 87%
    03:00 +17°C° 0 mm 2 mps 754 mmHg 88%
    04:00 +16°C° 0 mm 2 mps 754 mmHg 90%
    05:00 +17°C° 0 mm 2 mps 754 mmHg 86%
    06:00 +18°C° 0 mm 2 mps 754 mmHg 82%
    07:00 +19°C° 0 mm 2 mps 754 mmHg 78%
    08:00 +21°C° 0 mm 2 mps 753 mmHg 71%
    09:00 +24°C° 0 mm 3 mps 753 mmHg 63%
    10:00 +26°C° 0 mm 3 mps 753 mmHg 55%
    11:00 +27°C° 0 mm 3 mps 753 mmHg 51%
    12:00 +28°C° 0 mm 3 mps 752 mmHg 47%
    13:00 +29°C° 0 mm 3 mps 752 mmHg 44%
    14:00 +29°C° 0 mm 3 mps 751 mmHg 43%
    15:00 +30°C° 0 mm 3 mps 751 mmHg 41%
    16:00 +30°C° 0 mm 3 mps 751 mmHg 40%
    17:00 +29°C° 0 mm 2 mps 751 mmHg 45%
    18:00 +28°C° 0 mm 2 mps 751 mmHg 50%
    19:00 +26°C° 0 mm 1 mps 751 mmHg 55%
    20:00 +25°C° 0 mm 1 mps 751 mmHg 59%
    21:00 +23°C° 0 mm 1 mps 751 mmHg 63%
    22:00 +22°C° 0 mm 1 mps 751 mmHg 66%
    23:00 +21°C° 0 mm 1 mps 751 mmHg 69%

    Day after tomorrow, 17 August, Friday

    Time Temperature Precipitation Wind Pressure Humidity
    00:00 +21°C° 0 mm 1 mps 751 mmHg 73%
    01:00 +20°C° 0 mm 1 mps 751 mmHg 76%
    02:00 +19°C° 0.1 mm 1 mps 751 mmHg 79%
    03:00 +19°C° 0.1 mm 1 mps 751 mmHg 83%
    04:00 +18°C° 0.1 mm 1 mps 751 mmHg 87%
    05:00 +19°C° 0.1 mm 1 mps 751 mmHg 86%
    06:00 +19°C° 0.1 mm 1 mps 752 mmHg 84%
    07:00 +20°C° 0.1 mm 1 mps 752 mmHg 83%
    08:00 +20°C° 0.2 mm 2 mps 752 mmHg 78%
    09:00 +23°C° 0.2 mm 2 mps 752 mmHg 73%
    10:00 +24°C° 0.2 mm 3 mps 752 mmHg 69%
    11:00 +25°C° 0.6 mm 3 mps 752 mmHg 68%
    12:00 +25°C° 0.6 mm 3 mps 752 mmHg 67%
    13:00 +26°C° 0.6 mm 3 mps 752 mmHg 66%
    14:00 +25°C° 0.5 mm 3 mps 752 mmHg 67%
    15:00 +25°C° 0.5 mm 3 mps 752 mmHg 69%
    16:00 +23°C° 0.5 mm 4 mps 752 mmHg 71%
    17:00 +24°C° 0.2 mm 3 mps 753 mmHg 73%
    18:00 +22°C° 0.2 mm 3 mps 753 mmHg 76%
    19:00 +21°C° 0.2 mm 3 mps 753 mmHg 79%
    20:00 +20°C° 0 mm 2 mps 753 mmHg 81%
    21:00 +19°C° 0 mm 2 mps 754 mmHg 84%
    22:00 +18°C° 0 mm 2 mps 754 mmHg 86%
    23:00 +17°C° 0 mm 2 mps 754 mmHg 88%

    18 August, Saturday

    Time Temperature Precipitation Wind Pressure Humidity
    00:00 +16°C° 0 mm 2 mps 755 mmHg 89%
    01:00 +16°C° 0 mm 1 mps 755 mmHg 90%
    02:00 +15°C° 0 mm 1 mps 755 mmHg 90%
    03:00 +15°C° 0 mm 1 mps 755 mmHg 90%
    04:00 +13°C° 0 mm 0 mps 755 mmHg 89%
    05:00 +15°C° 0 mm 1 mps 755 mmHg 86%
    06:00 +16°C° 0 mm 1 mps 756 mmHg 83%
    07:00 +16°C° 0 mm 1 mps 756 mmHg 80%
    08:00 +19°C° 0 mm 1 mps 756 mmHg 71%
    09:00 +20°C° 0 mm 2 mps 756 mmHg 63%
    10:00 +22°C° 0 mm 3 mps 756 mmHg 55%
    11:00 +22°C° 0 mm 3 mps 756 mmHg 50%
    12:00 +24°C° 0 mm 3 mps 756 mmHg 46%
    13:00 +25°C° 0 mm 3 mps 756 mmHg 41%
    14:00 +26°C° 0 mm 3 mps 756 mmHg 40%
    15:00 +26°C° 0 mm 3 mps 756 mmHg 40%
    16:00 +26°C° 0 mm 3 mps 755 mmHg 39%
    17:00 +25°C° 0 mm 3 mps 756 mmHg 45%
    18:00 +24°C° 0 mm 2 mps 756 mmHg 51%
    19:00 +23°C° 0 mm 2 mps 756 mmHg 56%
    20:00 +20°C° 0 mm 2 mps 756 mmHg 60%
    21:00 +20°C° 0 mm 1 mps 757 mmHg 64%
    22:00 +19°C° 0 mm 1 mps 757 mmHg 69%
    23:00 +18°C° 0 mm 1 mps 757 mmHg 71%

    19 August, Sunday

    Time Temperature Precipitation Wind Pressure Humidity
    00:00 +18°C° 0 mm 1 mps 757 mmHg 74%
    01:00 +16°C° 0 mm 1 mps 757 mmHg 77%
    02:00 +16°C° 0 mm 1 mps 757 mmHg 79%
    03:00 +16°C° 0 mm 1 mps 757 mmHg 81%
    04:00 +15°C° 0 mm 1 mps 757 mmHg 83%
    05:00 +16°C° 0 mm 1 mps 757 mmHg 81%
    06:00 +18°C° 0 mm 1 mps 757 mmHg 79%
    07:00 +19°C° 0 mm 1 mps 757 mmHg 77%
    08:00 +21°C° 0 mm 1 mps 757 mmHg 70%
    09:00 +21°C° 0 mm 2 mps 758 mmHg 64%
    10:00 +24°C° 0 mm 2 mps 758 mmHg 57%
    11:00 +25°C° 0 mm 2 mps 757 mmHg 53%
    12:00 +26°C° 0 mm 2 mps 757 mmHg 50%
    13:00 +27°C° 0 mm 2 mps 757 mmHg 46%
    14:00 +28°C° 0 mm 2 mps 756 mmHg 45%
    15:00 +28°C° 0 mm 2 mps 756 mmHg 45%
    16:00 +28°C° 0 mm 2 mps 756 mmHg 44%
    17:00 +27°C° 0 mm 2 mps 756 mmHg 48%
    18:00 +26°C° 0 mm 1 mps 755 mmHg 53%
    19:00 +25°C° 0 mm 1 mps 755 mmHg 57%
    20:00 +24°C° 0 mm 1 mps 755 mmHg 61%
    21:00 +22°C° 0 mm 1 mps 756 mmHg 64%
    22:00 +21°C° 0 mm 1 mps 756 mmHg 67%
    23:00 +21°C° 0 mm 1 mps 756 mmHg 70%

    20 August, Monday

    Time Temperature Precipitation Wind Pressure Humidity
    00:00 +20°C° 0 mm 1 mps 756 mmHg 73%
    01:00 +20°C° 0 mm 1 mps 755 mmHg 75%
    02:00 +18°C° 0 mm 2 mps 755 mmHg 78%
    03:00 +18°C° 0 mm 2 mps 755 mmHg 80%
    04:00 +17°C° 0 mm 2 mps 755 mmHg 83%
    05:00 +18°C° 0 mm 2 mps 755 mmHg 81%
    06:00 +19°C° 0 mm 3 mps 755 mmHg 79%
    07:00 +20°C° 0 mm 3 mps 755 mmHg 77%
    08:00 +21°C° 0 mm 4 mps 755 mmHg 74%
    09:00 +22°C° 0 mm 4 mps 755 mmHg 71%
    10:00 +23°C° 0 mm 5 mps 755 mmHg 68%
    11:00 +23°C° 0 mm 5 mps 755 mmHg 68%
    12:00 +23°C° 0 mm 5 mps 755 mmHg 67%
    13:00 +25°C° 0 mm 5 mps 755 mmHg 66%
    14:00 +25°C° 0 mm 5 mps 755 mmHg 65%
    15:00 +25°C° 0 mm 5 mps 755 mmHg 63%
    16:00 +25°C° 0 mm 5 mps 755 mmHg 62%
    17:00 +25°C° 0 mm 4 mps 755 mmHg 66%
    18:00 +23°C° 0 mm 4 mps 755 mmHg 70%
    19:00 +22°C° 0 mm 3 mps 755 mmHg 74%
    20:00 +21°C° 0 mm 3 mps 755 mmHg 79%
    21:00 +20°C° 0 mm 3 mps 756 mmHg 83%
    22:00 +19°C° 0 mm 2 mps 756 mmHg 87%
    23:00 +19°C° 0 mm 2 mps 756 mmHg 89%
    Show more